Date,TemperatureHighF,TemperatureAvgF,TemperatureLowF,DewpointHighF,DewpointAvgF,DewpointLowF,HumidityHigh,HumidityAvg,HumidityLow,PressureMaxIn,PressureMinIn,WindSpeedMaxMPH,WindSpeedAvgMPH,GustSpeedMaxMPH,PrecipitationSumIn
2014-1-1,38.9,24.6,16.0,27.3,16.6,10.2,79,72,63,30.20,30.06,9,4,18,0.00
2014-1-2,16.0,8.9,-3.4,10.6,2.9,-9.6,83,76,73,30.54,30.20,7,2,14,0.00
2014-1-3,31.7,25.2,-3.7,22.1,16.2,-10.0,78,68,64,30.53,29.91,13,7,21,0.00
2014-1-4,43.5,32.7,21.2,32.5,23.2,14.3,75,68,64,30.03,29.85,9,5,20,0.00
2014-1-5,21.0,11.7,0.6,14.2,6.1,-6.0,89,78,73,30.45,29.98,13,8,26,0.00
2014-1-6,0.5,-4.5,-9.0,-6.2,-12.2,-16.4,73,68,65,30.57,30.45,10,4,19,0.00
2014-1-7,31.5,10.3,-7.9,21.3,1.9,-15.4,73,68,64,30.51,30.18,6,1,14,0.00
2014-1-8,22.9,19.0,12.6,14.6,11.1,4.0,76,71,68,30.46,30.26,6,2,12,0.00
2014-1-9,34.4,28.8,17.1,30.6,24.0,10.2,86,82,74,30.42,30.11,4,2,7,0.00
2014-1-10,46.3,40.4,34.5,44.1,37.7,30.7,92,90,87,30.11,29.53,9,4,18,0.35
2014-1-11,44.5,39.2,32.1,40.6,35.4,28.1,92,86,81,29.92,29.55,7,3,14,0.02
2014-1-12,60.0,43.2,29.6,46.5,34.4,25.9,92,73,48,29.92,29.55,11,4,20,0.00
2014-1-13,50.7,42.1,27.5,39.8,30.4,17.6,72,63,54,29.85,29.56,8,2,17,0.00
2014-1-14,43.8,36.4,26.5,36.4,25.5,14.4,78,65,56,30.14,29.71,12,6,25,0.00
2014-1-15,32.7,25.6,20.0,19.6,14.4,-99.9,66,63,58,30.24,29.88,17,0,18,0.00
2014-1-16,46.8,35.2,17.2,34.0,24.8,7.2,71,66,57,29.97,29.69,32,5,36,0.02
2014-1-17,26.1,18.2,14.4,15.8,9.4,5.2,73,68,64,30.14,29.96,22,4,22,0.00
2014-1-18,46.4,31.7,15.3,34.0,22.4,6.8,74,68,61,30.08,29.66,30,6,31,0.02
2014-1-19,55.4,37.8,20.8,36.9,25.9,14.9,85,64,46,30.08,29.76,19,4,20,0.00
2014-1-20,50.0,41.0,28.2,37.8,28.6,16.3,70,61,52,30.08,29.79,30,3,31,0.00
2014-1-21,29.5,15.5,7.0,20.5,6.7,-1.1,72,67,63,30.45,30.08,31,5,31,0.00
2014-1-22,34.7,24.1,9.0,19.8,11.6,-3.5,63,59,53,30.45,30.06,24,5,27,0.00
2014-1-23,15.3,7.1,1.4,1.9,-5.0,-9.8,61,57,53,30.79,30.45,19,4,19,0.00
2014-1-24,40.3,23.7,4.5,19.9,7.0,-8.0,68,50,38,30.72,29.73,28,6,29,0.00
2014-1-25,45.1,35.9,23.5,30.6,17.6,2.3,66,48,36,29.99,29.69,29,5,29,0.00
2014-1-26,55.9,43.0,19.9,37.8,26.5,3.0,63,52,45,30.12,29.57,37,6,41,0.00
2014-1-27,19.9,10.7,3.6,2.3,-5.7,-11.7,49,47,45,30.55,30.11,28,6,29,0.00
2014-1-28,19.9,8.8,-2.6,3.2,-5.9,-15.5,61,50,46,30.58,30.38,14,1,14,0.00
2014-1-29,39.0,24.2,6.8,18.1,8.0,-5.8,63,50,41,30.38,30.01,18,3,18,0.00
2014-1-30,45.7,36.6,30.2,22.8,17.3,12.4,53,45,39,30.01,29.73,27,6,28,0.00
2014-1-31,31.3,24.0,21.0,17.2,14.5,12.0,77,67,53,30.12,29.96,16,4,18,0.00
2014-2-1,30.6,26.8,23.4,25.7,22.2,17.2,85,82,77,30.20,29.83,13,2,13,0.05
2014-2-2,25.2,15.6,4.6,21.4,11.3,-0.4,92,83,80,30.40,30.19,13,2,13,0.00
2014-2-3,26.4,14.2,-0.2,21.0,9.3,-4.9,92,81,79,30.45,30.32,6,0,6,0.00
2014-2-4,23.2,21.3,18.7,18.9,17.2,15.3,86,84,81,30.34,30.03,15,3,17,0.00
2014-2-5,18.7,13.0,4.6,15.3,9.1,-0.2,91,84,80,30.66,30.06,19,5,19,0.00
2014-2-6,12.4,2.2,-9.6,6.8,-3.2,-15.9,82,78,73,30.69,30.55,14,2,14,0.00
2014-2-7,16.3,5.7,-13.7,9.3,-0.8,-19.7,78,74,72,30.55,30.32,11,1,11,0.00
2014-2-8,28.9,23.4,15.3,23.5,17.8,8.6,81,79,74,30.32,30.11,11,1,11,0.00
2014-2-9,27.1,21.8,13.3,24.1,16.7,7.2,89,80,76,30.44,30.14,16,3,16,0.00
2014-2-10,13.8,8.4,2.8,7.2,1.4,-5.1,83,72,68,30.55,30.43,14,2,15,0.00
2014-2-11,18.9,6.6,-8.5,10.0,-1.7,-16.2,72,68,65,30.58,30.34,10,0,10,0.00
2014-2-12,36.0,20.4,5.7,24.3,9.8,-3.1,69,63,57,30.34,30.00,13,1,13,0.05
2014-2-13,43.7,30.5,12.6,33.1,21.2,1.4,74,68,59,30.01,29.74,19,3,21,0.11
2014-2-14,33.8,25.3,14.7,27.9,19.4,8.4,81,78,74,30.14,29.61,21,4,22,0.00
2014-2-15,31.8,18.9,6.4,25.2,12.6,0.5,86,76,72,30.15,29.93,17,2,17,0.00
2014-2-16,32.5,30.4,28.0,26.4,25.0,22.6,82,80,76,30.24,30.01,18,3,18,0.00
2014-2-17,48.0,38.1,30.4,40.1,32.1,25.5,87,79,69,30.05,29.80,26,4,27,0.08
2014-2-18,63.0,49.2,36.3,40.1,33.6,27.1,70,56,39,30.01,29.69,19,3,20,0.00
2014-2-19,51.3,44.0,31.6,40.6,33.7,21.6,80,67,54,30.02,29.63,17,2,17,0.21
2014-2-20,69.6,49.1,37.8,62.1,42.5,27.7,85,78,67,29.69,29.13,31,7,34,0.02
2014-2-21,56.5,42.1,30.9,33.3,25.9,15.6,68,54,36,29.91,29.66,31,5,31,0.00
2014-2-22,55.6,39.0,28.8,40.6,26.3,14.5,69,60,48,30.08,29.89,23,2,23,0.00
2014-2-23,34.2,29.4,24.8,22.3,18.7,15.1,67,64,60,30.36,30.07,18,4,18,0.00
2014-2-24,33.4,28.3,21.7,22.1,17.8,11.8,67,64,61,30.40,30.23,14,1,14,0.00
2014-2-25,28.2,23.9,16.9,19.2,15.2,6.4,73,69,63,30.42,30.26,20,5,20,0.00
2014-2-26,27.0,18.3,7.2,13.1,6.3,-2.4,65,59,49,30.44,29.97,20,4,20,0.00
2014-2-27,26.4,22.1,15.3,15.8,8.9,3.2,66,57,47,30.21,29.96,19,3,23,0.00
2014-2-28,49.6,34.8,18.1,28.0,17.3,3.7,58,49,41,30.08,29.87,20,4,21,0.00
2014-3-1,44.2,13.8,15.3,26.8,-31.0,-99.9,77,43,50,30.34,30.01,20,-406,20,0.00
2014-3-2,15.1,6.6,2.5,9.1,0.8,-3.8,86,76,74,30.53,30.33,20,7,23,0.00
2014-3-3,21.0,9.4,-2.9,12.7,2.0,-9.8,77,71,68,30.60,30.33,21,2,21,0.00
2014-3-4,44.4,28.3,10.4,29.3,16.5,2.8,73,62,49,30.36,30.08,13,2,13,0.05
2014-3-5,45.3,34.9,26.8,31.5,22.5,14.7,68,60,53,30.30,30.10,18,2,19,0.00
2014-3-6,48.4,35.5,25.7,36.9,26.0,18.5,76,68,59,30.30,30.03,7,1,8,0.00
2014-3-7,62.1,46.9,33.4,41.9,31.4,22.6,65,55,42,30.03,29.84,15,3,15,0.00
2014-3-8,40.5,35.7,29.1,31.8,28.7,23.2,79,76,62,30.32,29.98,15,3,15,0.00
2014-3-9,59.2,40.9,22.5,41.5,30.2,17.6,85,67,47,30.32,29.96,18,3,18,0.00
2014-3-10,74.1,56.2,45.1,45.9,37.9,27.9,72,52,33,29.97,29.65,20,4,20,0.00
2014-3-11,81.0,58.9,39.4,57.6,41.7,27.5,72,54,36,29.66,29.39,31,4,31,0.42
2014-3-12,44.2,37.6,31.5,34.3,29.4,22.1,80,72,64,30.15,29.65,22,7,31,0.06
2014-3-13,65.7,47.0,27.1,44.4,32.0,19.4,76,58,38,30.14,29.85,18,3,18,0.00
2014-3-14,64.2,55.2,37.6,37.9,31.0,16.5,48,40,31,29.98,29.73,25,5,25,0.00
2014-3-15,72.1,51.4,30.6,41.5,30.6,16.0,64,46,30,29.99,29.83,19,3,20,0.00
2014-3-16,46.8,32.4,23.5,32.7,23.0,15.3,75,68,58,30.16,29.92,33,8,33,0.00
2014-3-17,49.8,32.9,16.0,33.1,20.7,8.8,76,62,43,30.12,29.72,16,2,17,0.00
2014-3-18,65.3,50.4,37.4,44.6,35.4,22.5,76,57,43,29.72,29.47,28,7,30,0.07
2014-3-19,51.6,43.7,30.7,42.4,34.7,21.0,79,71,62,30.11,29.54,19,5,24,0.01
2014-3-20,68.4,50.2,29.1,42.1,31.2,20.5,76,52,28,30.11,29.85,20,3,20,0.00
2014-3-21,75.7,57.3,40.8,43.0,32.6,19.9,50,40,29,30.02,29.70,21,4,22,0.00
2014-3-22,49.3,39.3,32.7,32.0,25.1,16.5,68,57,47,30.39,30.02,22,6,22,0.00
2014-3-23,41.4,32.1,25.2,23.2,15.8,7.0,59,51,43,30.51,30.35,19,4,19,0.00
2014-3-24,42.4,34.0,23.4,25.7,18.4,6.3,66,53,46,30.37,30.18,14,2,16,0.00
2014-3-25,39.0,32.6,22.6,25.7,20.2,6.4,75,61,46,30.32,30.18,24,5,24,0.00
2014-3-26,53.2,38.7,20.3,32.7,20.6,5.7,69,49,35,30.29,29.88,29,6,29,0.07
2014-3-27,62.2,51.2,41.2,54.0,43.8,32.2,82,76,69,29.88,29.39,28,8,28,0.59
2014-3-28,45.9,42.2,38.5,39.7,36.4,33.1,82,80,77,30.14,29.72,22,3,22,0.00
2014-3-29,54.5,43.4,37.2,43.5,35.6,27.1,82,74,62,30.27,30.12,19,3,19,0.00
2014-3-30,70.0,53.3,36.3,46.9,37.2,26.8,78,57,34,30.25,29.91,22,5,22,0.00
2014-3-31,69.1,60.1,53.2,49.8,44.1,37.0,69,56,43,29.91,29.62,31,8,33,0.05
2014-4-1,57.9,45.8,32.4,40.3,30.4,19.2,66,55,49,30.09,29.81,24,3,24,0.02
2014-4-2,56.7,49.8,44.6,52.9,44.8,37.0,90,83,66,30.05,29.71,15,2,15,0.74
2014-4-3,63.1,58.0,52.9,60.6,55.5,50.0,93,91,90,29.77,29.48,26,3,28,1.80
2014-4-4,54.0,42.5,38.7,51.1,37.5,33.6,91,83,77,30.15,29.60,32,7,32,0.01
2014-4-5,56.3,46.2,35.2,45.0,37.5,29.1,81,72,61,30.22,30.07,11,1,11,0.00
2014-4-6,62.4,51.7,42.8,47.8,39.7,33.8,76,64,51,30.08,29.81,14,2,14,0.00
2014-4-7,62.8,54.0,46.0,45.1,40.3,35.6,72,60,50,29.81,29.67,16,2,17,0.00
2014-4-8,59.7,53.1,43.3,44.8,39.7,28.8,71,61,49,30.03,29.75,22,4,24,0.00
2014-4-9,70.0,52.9,31.8,42.4,33.8,22.1,76,51,34,30.11,29.82,18,3,18,0.00
2014-4-10,72.5,62.5,47.3,51.6,43.0,32.0,55,49,41,29.97,29.70,19,4,19,0.00
2014-4-11,75.6,57.7,38.5,47.1,37.9,28.2,72,50,32,30.06,29.92,13,1,14,0.00
2014-4-12,82.9,71.5,59.0,65.3,56.7,37.6,75,60,45,29.92,29.57,27,7,29,0.00
2014-4-13,72.3,66.1,51.3,64.0,57.9,47.3,87,75,58,29.66,29.39,31,6,31,0.60
2014-4-14,51.1,39.1,34.2,47.1,35.4,28.6,89,86,80,30.14,29.54,19,6,21,0.07
2014-4-15,50.0,38.9,25.7,36.3,29.5,21.0,84,70,54,30.24,30.12,17,2,17,0.00
2014-4-16,61.7,50.5,39.0,40.1,33.4,27.1,66,53,38,30.14,29.92,31,9,31,0.00
2014-4-17,52.5,48.8,43.2,42.3,37.2,31.1,73,65,47,30.27,30.02,15,2,15,0.00
2014-4-18,69.1,53.8,35.8,53.8,42.5,29.1,80,67,51,30.33,30.16,9,0,10,0.00
2014-4-19,76.8,64.2,50.7,55.4,46.5,38.8,70,54,39,30.22,30.06,20,3,20,0.00
2014-4-20,80.8,69.3,56.7,58.5,50.9,41.7,61,52,42,30.11,29.94,17,2,17,0.00
2014-4-21,75.7,65.8,58.3,63.7,56.2,47.8,80,72,61,29.97,29.83,13,1,13,0.05
2014-4-22,66.9,56.7,46.8,55.8,44.0,31.8,81,64,45,30.07,29.91,18,4,20,0.00
2014-4-23,67.3,56.2,44.1,46.9,40.9,31.5,65,57,46,30.07,29.79,21,2,21,0.00
2014-4-24,72.9,59.9,53.1,57.9,47.6,41.0,84,65,53,29.80,29.49,20,4,27,0.50
2014-4-25,77.4,61.4,43.5,57.9,47.9,39.4,88,65,36,29.92,29.72,17,2,17,0.01
2014-4-26,70.9,65.0,55.4,55.6,49.4,40.6,62,57,49,29.83,29.63,19,2,21,0.00
2014-4-27,77.5,70.0,62.1,67.6,59.2,53.2,86,69,56,29.67,29.40,26,5,27,0.98
2014-4-28,71.8,63.5,58.6,62.6,53.8,42.4,87,72,52,29.44,29.24,26,6,28,0.02
2014-4-29,59.0,51.7,46.8,48.4,44.1,41.4,88,76,54,29.72,29.38,17,3,17,0.12
2014-4-30,54.3,46.9,41.9,46.8,41.4,37.9,92,81,73,29.91,29.72,24,3,24,0.05
2014-5-1,53.4,48.5,43.5,45.1,41.7,37.4,81,77,72,29.96,29.85,18,3,18,0.01
2014-5-2,65.8,55.6,47.8,49.1,44.4,41.5,81,67,50,29.96,29.77,16,2,19,0.00
2014-5-3,77.4,64.3,53.4,53.2,46.0,39.4,66,52,38,29.90,29.77,12,1,12,0.00
2014-5-4,80.2,66.1,51.1,61.5,51.7,39.4,72,60,50,29.92,29.73,13,1,13,0.00
2014-5-5,84.0,69.3,54.9,61.9,53.7,45.7,74,58,46,29.75,29.65,20,2,20,0.00
2014-5-6,89.2,72.8,56.1,70.0,57.3,45.5,70,59,44,29.74,29.52,22,3,22,0.00
2014-5-7,88.2,78.8,69.4,69.6,65.0,60.1,74,63,52,29.70,29.59,23,5,24,0.00
2014-5-8,81.3,73.7,68.2,69.3,64.9,61.3,84,74,65,29.78,29.67,27,4,27,0.11
2014-5-9,74.8,66.4,54.5,63.5,55.9,42.1,88,70,48,29.85,29.67,14,1,14,0.08
2014-5-10,82.8,67.3,51.6,63.3,55.1,42.1,81,66,51,29.90,29.69,31,3,31,1.32
2014-5-11,85.8,74.7,63.7,74.8,66.7,58.6,87,77,60,29.87,29.66,21,6,23,0.08
2014-5-12,86.4,75.8,59.4,74.3,68.2,55.4,87,78,65,29.87,29.66,27,5,29,0.53
2014-5-13,59.4,53.9,48.7,55.4,50.3,44.8,92,88,84,30.20,29.87,15,2,17,0.00
2014-5-14,53.8,49.9,44.6,46.9,44.4,41.0,88,82,72,30.22,30.06,16,1,16,0.00
2014-5-15,58.6,51.4,43.3,51.6,42.9,34.7,84,73,57,30.09,30.02,14,2,19,0.03
2014-5-16,57.7,48.1,38.1,42.6,37.0,30.4,81,66,53,30.12,30.05,16,2,18,0.00
2014-5-17,64.4,50.7,35.1,47.3,38.4,26.6,78,63,51,30.18,30.11,9,0,10,0.00
2014-5-18,69.8,57.7,41.5,52.5,43.9,32.0,78,61,48,30.23,30.05,16,3,16,0.00
2014-5-19,79.9,67.8,55.0,66.6,55.7,43.0,73,65,57,30.06,29.74,27,7,27,0.00
2014-5-20,86.2,76.0,66.7,72.0,64.8,57.2,77,69,60,29.85,29.74,19,2,21,0.00
2014-5-21,86.7,78.3,71.4,74.3,68.8,63.1,80,73,66,29.95,29.80,10,0,10,0.00
2014-5-22,77.9,69.1,61.3,68.2,59.2,52.5,81,71,58,30.15,29.94,17,1,20,0.00
2014-5-23,80.8,68.5,56.8,64.9,56.3,46.8,83,66,47,30.13,30.03,10,0,11,0.00
2014-5-24,71.8,65.9,57.7,62.8,57.3,46.2,81,74,63,30.11,30.00,17,1,17,0.00
2014-5-25,84.0,74.3,65.1,72.9,66.0,59.9,83,76,63,30.03,29.91,11,1,12,0.00
2014-5-26,83.1,72.8,67.3,75.7,67.3,62.1,89,83,75,29.99,29.89,18,1,19,0.88
2014-5-27,82.6,73.4,66.0,74.7,68.1,63.3,92,84,70,29.96,29.85,10,0,10,0.04
2014-5-28,86.0,75.4,65.7,76.3,68.5,61.7,90,80,68,29.91,29.82,13,1,13,0.00
2014-5-29,84.4,76.6,68.9,74.7,68.9,63.7,87,77,67,29.95,29.85,14,1,14,0.00
2014-5-30,83.7,76.1,68.7,74.3,68.8,62.2,85,78,70,30.01,29.94,11,0,11,0.00
2014-5-31,86.4,76.8,69.6,75.7,69.5,64.6,88,79,64,30.03,29.91,18,1,18,0.05
2014-6-1,84.7,78.4,70.3,75.0,70.8,66.0,88,78,66,29.95,29.77,21,4,22,0.00
2014-6-2,84.9,77.1,70.2,73.8,68.8,63.5,84,76,66,29.91,29.72,23,2,23,0.00
2014-6-3,89.4,79.8,68.4,78.3,71.2,62.4,87,76,64,29.95,29.72,14,2,16,0.00
2014-6-4,81.0,74.6,66.7,72.7,69.1,62.2,89,83,75,29.78,29.60,33,2,34,1.32
2014-6-5,71.4,68.4,65.1,67.6,64.2,61.2,89,86,84,29.92,29.63,15,1,20,0.01
2014-6-6,79.9,70.6,62.1,73.6,65.9,58.3,90,85,78,29.95,29.83,9,0,9,0.00
2014-6-7,74.8,69.9,65.5,71.2,66.2,61.5,92,88,83,29.88,29.63,21,3,23,0.29
2014-6-8,74.7,68.2,60.3,68.9,63.6,57.4,91,86,79,29.99,29.86,13,1,14,0.01
2014-6-9,75.6,68.0,61.2,69.4,63.1,57.2,89,84,79,29.93,29.70,15,1,15,0.28
2014-6-10,72.9,66.0,61.0,69.8,63.3,57.4,93,91,88,29.71,29.65,13,1,13,1.16
2014-6-11,73.8,67.3,63.0,69.6,64.4,59.4,93,90,86,29.80,29.68,10,1,10,0.01
2014-6-12,71.1,65.7,58.6,67.8,62.7,55.6,92,90,88,29.92,29.77,12,0,13,0.05
2014-6-13,75.2,63.3,52.7,62.8,56.0,46.8,92,78,59,30.06,29.92,12,0,15,0.00
2014-6-14,79.5,68.7,54.9,63.7,57.0,46.6,80,67,53,30.01,29.78,27,6,27,0.00
2014-6-15,81.7,74.4,69.3,71.4,66.1,58.5,83,76,67,29.94,29.67,19,3,23,0.00
2014-6-16,88.9,80.1,69.8,79.5,72.5,64.8,88,78,65,29.98,29.75,23,4,23,0.00
2014-6-17,88.9,82.3,77.2,78.3,74.1,70.7,83,76,69,29.90,29.77,23,4,23,0.00
2014-6-18,89.8,83.0,76.6,79.7,74.8,71.4,85,77,67,29.88,29.81,21,3,21,0.00
2014-6-19,88.5,81.4,74.7,79.0,73.8,68.4,88,78,69,29.95,29.85,16,2,19,0.55
2014-6-20,89.2,79.0,72.3,81.3,73.6,66.7,91,84,71,29.96,29.88,9,0,9,0.00
2014-6-21,90.7,76.6,69.3,81.1,70.7,64.9,89,82,68,29.91,29.78,18,1,18,0.06
2014-6-22,89.2,77.8,68.7,80.4,71.0,64.4,89,80,66,29.86,29.72,16,1,19,0.09
2014-6-23,81.5,74.4,69.4,76.5,70.4,65.7,92,87,83,29.83,29.68,15,1,15,1.31
2014-6-24,84.4,75.6,68.4,73.8,68.7,62.1,92,80,63,29.92,29.83,14,1,14,0.01
2014-6-25,88.5,76.5,64.2,75.0,67.0,59.0,87,74,56,29.99,29.91,6,0,6,0.00
2014-6-26,87.1,77.6,67.8,75.7,69.0,62.1,85,75,63,29.96,29.81,15,2,15,0.00
2014-6-27,87.3,79.6,71.4,77.7,72.4,66.9,87,79,69,29.88,29.78,16,3,17,0.00
2014-6-28,84.6,77.1,68.7,77.9,71.5,64.9,88,83,77,29.89,29.77,28,4,28,0.30
2014-6-29,87.4,78.1,67.8,81.5,73.8,64.4,92,87,80,29.93,29.78,16,2,16,0.00
2014-6-30,91.8,84.1,77.7,82.6,77.3,65.8,90,81,61,29.81,29.59,23,3,27,0.06
2014-7-1,82.6,76.3,72.1,72.9,67.9,63.3,88,76,66,29.87,29.67,13,1,13,0.00
2014-7-2,73.2,67.1,60.4,64.8,58.1,54.5,83,73,65,30.07,29.87,18,2,19,0.00
2014-7-3,79.9,67.4,55.0,65.3,58.0,50.5,88,73,54,30.17,30.07,13,1,13,0.00
2014-7-4,82.8,70.6,57.9,67.3,59.6,51.4,84,69,55,30.25,30.15,9,0,10,0.00
2014-7-5,78.6,70.9,64.8,72.3,64.2,56.1,85,79,70,30.18,29.95,18,3,19,0.08
2014-7-6,86.7,77.1,71.8,78.3,70.6,67.1,89,81,69,29.97,29.78,16,1,16,0.02
2014-7-7,91.9,82.7,75.0,82.4,76.0,69.1,88,80,70,29.82,29.61,20,1,20,0.00
2014-7-8,81.9,67.5,66.9,74.1,49.3,-99.9,92,69,69,29.91,29.83,19,-126,19,0.00
2014-7-9,81.9,72.9,63.7,72.1,63.9,56.1,87,74,59,30.02,29.90,13,1,13,0.00
2014-7-10,76.3,65.6,61.3,67.6,59.0,55.2,85,79,74,30.09,30.00,12,0,12,0.00
2014-7-11,88.9,85.6,81.3,78.4,76.4,73.4,81,74,70,30.04,29.96,15,2,16,0.00
2014-7-12,92.8,84.1,78.6,80.1,75.4,72.3,84,76,62,30.01,29.88,12,0,12,0.00
2014-7-13,86.2,79.0,71.2,78.3,72.4,66.6,87,81,72,29.94,29.85,12,0,12,0.16
2014-7-14,81.7,73.5,64.2,76.8,66.8,54.3,91,80,66,29.98,29.86,22,2,22,0.04
2014-7-15,72.9,64.1,54.0,61.5,55.3,48.0,83,73,65,30.04,29.98,15,1,17,0.00
2014-7-16,77.5,65.0,53.4,64.0,56.0,47.3,85,73,59,30.05,29.98,10,0,10,0.00
2014-7-17,80.1,67.9,54.1,65.3,57.4,48.4,85,70,55,30.06,30.00,10,0,11,0.00
2014-7-18,80.8,70.5,61.3,68.0,59.6,52.9,84,69,55,30.07,29.98,14,1,15,0.00
2014-7-19,81.9,70.4,57.7,69.6,60.7,51.1,83,72,59,30.02,29.93,8,0,9,0.00
2014-7-20,84.0,73.6,62.2,72.3,64.2,55.2,84,73,61,29.99,29.91,13,1,13,0.00
2014-7-21,89.1,78.0,66.6,75.2,68.6,59.0,85,74,61,30.01,29.92,19,2,19,0.00
2014-7-22,93.7,83.1,72.0,84.2,75.7,66.6,85,79,70,30.00,29.88,12,1,12,0.00
2014-7-23,85.5,79.4,69.6,78.1,71.6,60.4,87,78,63,30.06,29.93,18,2,18,0.00
2014-7-24,81.3,70.8,58.6,67.1,60.5,52.5,84,71,56,30.11,29.93,12,0,12,0.00
2014-7-25,87.4,75.2,65.7,76.5,66.0,56.1,78,73,70,29.96,29.72,24,4,24,0.00
2014-7-26,90.1,80.7,76.3,80.8,74.6,71.4,87,82,71,29.83,29.72,12,1,12,0.06
2014-7-27,87.6,80.3,70.3,78.4,69.2,57.6,90,71,46,29.99,29.75,21,3,23,0.00
2014-7-28,77.5,69.8,60.4,67.1,60.0,51.1,82,72,61,30.11,29.98,16,2,16,0.00
2014-7-29,80.4,68.2,55.4,67.5,58.2,49.3,84,71,58,30.11,30.01,12,0,12,0.00
2014-7-30,82.4,71.3,59.2,69.1,61.0,53.1,85,71,56,30.05,29.98,9,0,9,0.00
2014-7-31,85.5,71.6,57.6,69.3,59.8,51.4,86,68,48,30.04,29.97,9,0,9,0.00
2014-8-1,83.7,70.7,61.3,71.4,62.1,53.4,84,75,60,30.04,29.98,7,0,7,0.00
2014-8-2,86.7,73.3,58.8,72.5,62.8,53.8,87,71,52,30.11,30.03,11,0,11,0.00
2014-8-3,88.9,75.6,63.3,73.9,65.2,56.1,83,71,56,30.11,29.98,9,0,9,0.00
2014-8-4,87.1,76.9,68.2,73.2,66.9,59.5,82,72,58,30.06,29.92,10,0,11,0.00
2014-8-5,88.3,79.3,70.9,75.7,69.3,63.5,82,72,61,29.99,29.89,11,1,11,0.00
2014-8-6,86.4,77.0,70.3,78.6,70.5,64.4,87,80,72,30.00,29.86,22,1,22,1.53
2014-8-7,77.4,72.8,70.0,75.0,69.9,64.9,93,91,83,29.90,29.78,13,1,13,2.98
2014-8-8,73.2,71.4,69.1,71.1,69.2,66.9,93,93,92,29.92,29.81,10,0,10,0.17
2014-8-9,78.3,73.3,70.9,75.4,70.7,68.4,93,92,91,29.97,29.90,7,0,7,0.07
2014-8-10,79.7,43.7,70.9,76.5,41.9,68.2,92,52,89,29.98,29.88,7,0,7,0.00
2014-8-11,82.0,73.9,66.6,76.5,68.9,60.1,91,85,73,29.94,29.88,23,1,23,0.00
2014-8-12,79.3,69.6,61.5,68.2,61.5,53.8,87,76,61,30.01,29.93,14,2,15,0.00
2014-8-13,81.9,69.5,57.2,68.0,59.7,51.8,85,72,57,30.09,30.00,10,0,11,0.00
2014-8-14,84.4,71.8,57.9,71.6,62.2,51.8,85,72,58,30.06,29.95,7,0,7,0.00
2014-8-15,78.3,71.2,66.4,72.3,65.7,58.3,89,83,74,29.96,29.84,9,0,10,0.21
2014-8-16,81.1,73.5,68.9,77.7,70.4,65.1,91,90,88,29.86,29.73,20,3,20,1.86
2014-8-17,77.2,73.3,70.3,73.9,70.3,67.3,91,90,90,29.88,29.77,11,1,11,0.02
2014-8-18,87.1,59.2,68.5,80.4,55.8,65.7,91,66,79,29.89,29.72,10,0,11,0.00
2014-8-19,88.5,77.2,69.4,79.5,71.7,65.7,90,83,72,29.79,29.70,13,0,13,0.05
2014-8-20,91.6,80.1,72.3,82.2,74.2,67.8,89,83,70,29.88,29.76,21,0,21,0.00
2014-8-21,93.4,80.5,73.9,81.9,73.3,69.1,86,77,66,29.89,29.80,14,1,17,0.00
2014-8-22,82.8,79.2,77.4,77.4,73.4,71.6,85,82,80,29.92,29.84,7,0,7,0.00
2014-8-24,94.3,86.7,83.1,77.2,74.3,71.2,76,67,57,29.86,29.81,9,1,10,0.00
2014-8-25,98.4,85.6,74.3,82.2,75.4,67.6,82,72,57,29.95,29.85,10,1,11,0.00
2014-8-26,93.6,83.0,76.5,83.1,75.4,69.4,84,78,68,30.04,29.92,13,1,15,0.00
2014-8-27,84.7,78.6,72.7,79.2,73.4,67.6,88,84,79,30.06,29.96,13,1,14,0.00
2014-8-28,94.5,81.0,70.2,80.4,72.9,66.4,90,78,60,29.98,29.83,16,1,16,0.00
2014-8-29,88.2,78.6,72.7,76.8,71.8,67.6,88,80,65,29.85,29.74,15,2,16,0.28
2014-8-30,89.4,79.0,71.8,79.9,73.0,68.0,91,82,68,29.85,29.79,12,1,12,0.00
2014-8-31,91.6,79.8,69.6,81.1,70.9,65.5,89,75,55,29.88,29.72,16,2,16,0.00
2014-9-1,82.0,74.8,67.5,73.8,68.2,62.8,88,80,70,29.86,29.61,27,2,30,0.49
2014-9-2,83.1,74.8,68.5,76.8,70.6,63.5,92,87,77,29.95,29.80,9,0,9,0.59
2014-9-3,81.0,73.5,67.8,74.5,69.0,63.1,91,86,78,29.97,29.83,16,2,19,0.01
2014-9-4,92.8,83.0,74.7,81.0,75.1,70.2,89,78,64,29.92,29.84,14,2,17,0.00
2014-9-5,91.6,78.2,61.7,80.8,71.2,57.0,86,79,67,30.11,29.90,19,1,26,0.55
2014-9-6,74.3,57.8,58.1,66.6,52.9,50.9,90,73,71,30.18,30.07,11,1,13,0.28
2014-9-7,77.2,64.1,50.7,63.9,54.8,45.5,85,72,58,30.19,30.04,13,0,13,0.00
2014-9-8,81.3,69.3,55.6,71.4,61.4,47.8,83,76,71,30.06,29.89,14,2,17,0.01
2014-9-9,88.0,76.4,69.4,79.3,70.7,63.9,88,83,72,29.90,29.61,18,3,21,0.05
2014-9-10,79.9,74.3,64.4,76.8,71.2,61.0,92,90,88,29.90,29.56,14,2,20,1.44
2014-9-11,64.2,57.5,54.9,61.0,54.3,52.3,91,89,87,30.22,29.90,10,2,12,0.00
2014-9-12,56.1,52.6,48.7,52.7,49.2,45.9,90,88,87,30.36,30.20,14,2,19,0.02
2014-9-13,63.7,51.1,40.6,55.9,46.1,37.9,92,83,71,30.40,30.24,10,0,10,0.01
2014-9-14,71.4,57.5,43.3,60.4,49.7,37.6,84,75,65,30.28,30.09,12,1,14,0.00
2014-9-15,72.5,65.6,60.1,66.4,59.9,54.7,87,82,74,30.16,29.98,16,2,18,0.02
2014-9-16,71.8,60.6,50.4,63.5,55.3,46.6,92,83,72,30.20,30.02,9,0,10,0.00
2014-9-17,67.1,62.0,56.3,63.5,58.2,51.1,90,87,81,30.03,29.86,9,1,10,0.00
2014-9-18,73.8,64.5,59.7,68.7,60.7,55.2,93,88,81,30.03,29.92,7,0,10,0.00
2014-9-19,77.7,67.0,55.2,68.4,60.4,51.1,88,80,70,30.04,29.91,13,2,15,0.00
2014-9-20,84.7,74.3,64.4,77.2,68.9,60.3,90,83,75,29.96,29.84,11,0,12,0.00
2014-9-21,74.8,67.0,54.3,70.3,57.3,44.4,88,72,56,30.16,29.86,22,2,22,0.00
2014-9-22,74.5,59.6,46.8,61.7,49.7,39.9,82,70,56,30.29,30.16,9,0,10,0.00
2014-9-23,74.7,61.6,47.3,61.3,51.5,41.4,83,70,57,30.28,30.14,11,1,12,0.01
2014-9-24,77.0,65.9,53.2,61.0,55.0,45.7,79,68,54,30.23,30.14,11,1,13,0.00
2014-9-25,79.2,67.9,59.0,69.3,60.1,51.4,86,76,64,30.22,30.10,9,0,9,0.11
2014-9-26,84.0,71.1,60.6,71.6,62.4,55.4,87,75,60,30.15,30.06,10,0,10,0.00
2014-9-27,82.2,70.3,59.4,71.4,60.9,53.8,86,73,59,30.14,30.02,10,0,12,0.00
2014-9-28,86.4,71.1,59.9,73.8,61.8,53.8,85,73,59,30.09,29.99,10,0,10,0.00
2014-9-29,85.5,70.9,58.5,72.9,60.9,53.1,85,72,54,30.02,29.89,7,0,7,0.00
2014-9-30,85.1,70.9,56.8,73.4,60.3,51.4,85,70,50,29.92,29.77,10,0,11,0.00
2014-10-1,70.9,66.1,62.1,64.9,60.7,54.7,91,83,72,29.83,29.69,15,1,15,0.64
2014-10-2,69.8,66.1,64.0,67.6,63.8,61.2,93,92,90,29.88,29.57,14,2,32,3.56
2014-10-3,63.9,52.5,43.7,61.9,49.3,39.6,94,89,80,30.03,29.59,25,4,28,0.39
2014-10-4,54.5,45.2,37.2,43.5,37.6,30.7,87,75,62,30.01,29.85,22,2,26,0.00
2014-10-5,69.8,55.7,40.3,56.8,45.4,32.0,81,69,55,29.85,29.66,23,1,26,0.00
2014-10-6,68.9,60.4,52.3,57.4,50.5,46.2,83,70,55,29.74,29.65,15,1,18,0.01
2014-10-7,74.5,62.7,50.2,63.0,51.9,37.6,87,69,46,29.93,29.63,20,1,20,0.03
2014-10-8,73.6,58.9,46.2,59.5,48.3,38.1,83,68,57,30.09,29.93,5,0,7,0.01
2014-10-9,59.7,57.3,55.9,55.4,52.6,48.2,89,84,73,30.05,29.95,15,1,15,0.76
2014-10-10,56.8,53.2,50.9,53.6,50.1,47.8,92,89,88,30.12,30.00,14,1,14,0.27
2014-10-11,57.9,50.7,43.5,53.1,46.6,40.1,92,86,79,30.19,30.04,15,0,15,0.01
2014-10-12,60.1,55.0,46.0,57.7,51.5,40.5,92,88,81,30.04,29.76,10,1,11,0.01
2014-10-13,69.4,63.7,57.0,66.7,61.0,54.5,93,91,88,29.76,29.34,20,3,21,1.03
2014-10-14,57.0,53.8,52.5,54.5,51.8,50.5,94,93,91,29.78,29.35,22,5,25,0.72
2014-10-15,65.7,55.5,47.1,56.8,49.4,38.8,93,81,64,29.89,29.78,20,3,20,0.02
2014-10-16,73.2,56.4,40.6,57.7,46.2,34.7,84,70,55,29.88,29.68,17,1,17,0.00
2014-10-17,64.9,57.1,49.6,53.6,48.4,42.4,81,73,64,29.99,29.71,20,2,24,0.00
2014-10-18,61.9,52.3,44.8,52.3,44.8,37.0,85,76,67,30.20,29.99,14,2,15,0.00
2014-10-19,64.4,52.2,38.5,54.5,44.3,32.7,84,75,66,30.21,29.97,15,1,17,0.00
2014-10-20,71.2,59.6,47.8,59.7,50.1,36.7,87,72,53,30.01,29.93,12,1,13,0.00
2014-10-21,69.1,55.2,42.1,58.8,45.2,35.1,83,69,59,30.15,30.01,10,0,10,0.01
2014-10-22,65.1,53.8,44.2,54.7,44.4,37.6,81,71,62,30.26,30.12,13,1,14,0.00
2014-10-23,65.7,56.4,49.3,58.5,49.5,41.5,82,78,70,30.15,30.03,15,2,15,0.05
2014-10-24,72.9,62.7,50.2,67.3,58.0,45.1,90,85,80,30.07,29.91,16,1,17,0.01
2014-10-25,77.9,65.4,54.7,70.5,58.9,46.2,92,80,65,30.02,29.93,5,0,5,0.00
2014-10-26,79.9,66.1,53.1,64.6,55.2,45.5,78,69,59,29.98,29.66,19,2,19,0.00
2014-10-27,79.3,71.5,66.9,67.5,62.3,59.9,79,73,64,29.73,29.52,17,2,20,0.01
2014-10-28,68.2,58.1,45.3,59.9,42.9,30.0,75,58,42,30.08,29.73,21,2,21,0.01
2014-10-29,57.2,45.8,35.4,43.3,33.6,26.1,74,62,54,30.22,30.08,17,1,17,0.00
2014-10-30,61.3,49.1,37.4,52.0,40.7,27.7,80,73,66,30.13,29.95,20,2,21,0.02
2014-10-31,49.6,42.2,33.6,43.9,31.2,20.7,81,65,52,30.43,30.07,23,4,26,0.00
2014-11-1,48.2,36.1,24.4,34.7,24.5,15.4,71,63,55,30.51,30.35,9,0,10,0.00
2014-11-2,57.7,47.9,37.2,38.1,32.0,25.3,65,55,42,30.36,30.09,23,6,23,0.00
2014-11-3,72.0,64.4,50.2,57.0,51.2,34.7,79,62,55,30.10,29.95,24,5,25,0.02
2014-11-4,61.3,50.6,43.5,55.4,45.5,38.5,87,82,79,30.18,29.95,22,2,22,0.08
2014-11-5,63.1,51.6,41.9,49.8,41.6,36.9,88,70,52,30.19,30.00,13,1,15,0.02
2014-11-6,52.3,45.7,31.5,42.3,34.0,20.5,71,64,54,30.31,30.02,25,4,25,0.02
2014-11-7,57.0,43.9,28.0,41.4,31.5,19.6,77,62,49,30.27,29.80,21,3,21,0.00
2014-11-8,54.0,47.5,33.1,41.5,34.7,22.8,69,61,53,30.08,29.80,23,4,25,0.00
2014-11-9,64.2,48.4,31.3,45.9,35.8,22.1,75,62,50,30.04,29.71,15,2,15,0.00
2014-11-10,74.3,60.3,48.7,54.1,45.6,37.4,70,59,46,29.72,29.37,27,5,27,0.00
2014-11-11,48.6,33.8,29.7,37.2,26.3,22.1,77,74,65,30.32,29.63,22,6,22,0.00
2014-11-12,30.4,26.9,23.5,22.1,17.2,12.0,76,66,60,30.48,30.32,17,4,18,0.00
2014-11-13,28.8,23.5,14.7,19.6,14.4,6.4,73,68,61,30.52,30.46,16,2,17,0.00
2014-11-14,33.4,22.9,12.4,24.4,13.9,5.2,77,68,62,30.51,30.39,10,0,11,0.00
2014-11-15,36.3,28.5,17.8,25.2,18.8,8.8,72,67,61,30.39,30.19,15,1,15,0.00
2014-11-16,32.5,28.5,19.8,26.2,22.0,13.6,80,76,71,30.19,30.05,12,1,13,0.00
2014-11-17,22.8,19.6,16.0,16.0,11.8,6.1,79,71,62,30.29,30.09,24,4,25,0.00
2014-11-18,31.3,21.8,11.7,18.5,11.3,3.4,71,64,56,30.36,29.98,15,3,17,0.00
2014-11-19,39.6,33.0,18.1,28.8,21.2,7.7,65,61,56,30.22,29.89,24,4,24,0.00
2014-11-20,38.5,25.7,15.8,26.6,15.6,6.8,73,65,59,30.35,30.20,13,1,13,0.00
2014-11-21,47.7,34.9,23.2,40.5,24.9,14.2,76,67,61,30.36,30.11,17,2,18,0.02
2014-11-22,61.9,55.2,47.7,55.0,49.4,40.5,85,81,76,30.11,29.72,20,4,24,0.03
2014-11-23,56.1,54.3,43.5,53.4,51.2,40.6,92,89,85,29.72,29.21,29,4,29,0.40
2014-11-24,43.2,36.1,31.8,40.6,31.9,26.4,96,85,78,30.02,29.28,31,6,31,0.24
2014-11-25,39.0,30.6,24.6,30.4,23.6,17.1,81,75,66,30.22,30.02,14,2,15,0.00
2014-11-26,40.3,34.5,29.7,35.8,28.9,21.9,92,80,72,30.30,29.93,20,3,20,0.10
2014-11-27,35.2,31.3,28.6,29.8,26.5,23.2,87,82,77,30.52,30.30,18,3,19,0.01
2014-11-28,58.8,43.8,29.5,45.5,35.0,24.4,83,72,60,30.34,29.75,17,4,18,0.00
2014-11-29,67.5,55.7,47.3,55.2,45.6,38.3,81,69,59,29.75,29.58,17,3,17,0.00
2014-11-30,59.7,42.1,21.9,52.3,35.0,15.3,81,76,66,30.40,29.62,19,4,19,0.00
2014-12-1,28.2,22.6,18.7,18.0,13.7,8.6,83,68,61,30.67,30.40,23,4,23,0.00
2014-12-2,34.5,27.5,19.0,25.7,19.0,9.0,78,70,64,30.51,30.12,15,1,15,0.00
2014-12-3,43.5,34.3,27.9,34.9,26.8,21.0,83,74,65,30.37,30.17,12,1,13,0.00
2014-12-4,38.8,35.0,32.0,35.1,28.6,22.8,86,77,67,30.34,30.14,7,0,7,0.01
2014-12-5,45.1,41.7,38.8,42.4,38.8,35.1,92,89,86,30.24,30.02,14,2,14,0.51
2014-12-6,40.6,36.7,34.9,38.5,34.7,33.1,100,93,92,30.60,30.24,14,2,15,0.13
2014-12-7,40.3,36.6,33.3,38.1,34.7,31.5,93,93,92,30.58,30.21,15,3,16,0.01
2014-12-8,51.4,43.4,36.7,46.9,40.5,32.9,93,89,83,30.24,30.12,18,2,18,0.01
2014-12-9,36.3,34.1,31.5,32.9,30.4,27.7,92,86,85,30.43,30.20,15,2,17,0.00
2014-12-10,37.6,35.2,33.3,34.9,31.5,29.7,92,86,85,30.39,30.26,10,0,11,0.00
2014-12-11,39.4,36.1,32.5,35.6,32.5,29.1,88,87,86,30.33,30.24,7,0,7,0.01
2014-12-12,52.3,43.4,37.0,47.7,39.4,32.7,92,86,83,30.34,30.24,6,1,9,0.00
2014-12-13,51.8,46.9,37.9,49.1,43.9,34.2,92,89,86,30.24,30.06,12,2,12,0.00
2014-12-14,66.2,56.3,50.5,61.2,52.8,48.4,93,88,82,30.06,29.80,18,4,20,0.00
2014-12-15,55.9,50.4,40.3,52.5,47.0,37.8,91,88,83,29.87,29.52,21,5,21,0.33
2014-12-16,40.5,33.2,29.8,38.1,29.9,25.5,92,88,84,30.33,29.75,23,5,23,0.05
2014-12-17,35.2,30.0,25.0,30.6,25.8,21.4,87,84,83,30.37,30.27,9,1,9,0.00
2014-12-18,33.3,31.0,28.8,29.8,27.3,24.6,88,86,83,30.29,30.21,8,0,8,0.04
2014-12-19,36.7,33.9,31.3,33.8,31.1,28.2,90,89,88,30.31,30.23,9,0,9,0.02
2014-12-20,41.4,38.6,35.4,39.2,36.3,32.7,92,91,90,30.24,30.17,7,1,7,0.02
2014-12-21,46.4,42.7,40.8,42.8,39.6,37.6,92,88,86,30.17,29.84,20,5,20,0.00
2014-12-22,48.7,44.8,41.2,46.6,41.8,37.6,93,89,85,29.84,29.45,14,3,15,0.20
2014-12-23,47.8,41.7,32.4,44.2,38.7,28.6,93,89,84,29.79,29.52,12,1,12,0.19
2014-12-24,38.7,37.4,32.2,35.8,34.4,28.4,90,89,86,29.85,29.69,15,3,17,0.02
2014-12-25,52.5,42.5,32.4,44.1,36.0,29.1,89,78,66,29.95,29.83,24,6,29,0.00
2014-12-26,59.5,50.9,43.2,50.4,43.0,34.7,83,74,68,30.01,29.90,18,5,18,0.00
2014-12-27,52.7,38.8,29.8,48.6,34.5,25.3,89,84,83,30.25,29.94,19,3,19,0.01
2014-12-28,38.7,30.1,23.4,31.8,24.6,16.9,85,80,73,30.27,30.17,10,1,10,0.00
2014-12-29,39.7,29.8,19.6,33.1,23.6,14.0,82,77,74,30.52,30.23,18,2,18,0.00
2014-12-30,29.7,20.9,14.9,23.7,13.6,5.7,79,73,67,30.77,30.52,19,4,19,0.00
2014-12-31,23.7,17.2,9.0,12.6,7.8,1.2,76,66,59,30.75,30.36,12,2,15,0.00
2015-1-1,36.0,28.0,19.9,24.3,18.2,11.1,76,66,59,30.36,30.18,15,3,22,0.00
2015-1-2,42.1,36.7,33.1,33.4,28.8,24.3,81,73,69,30.30,30.03,11,1,11,0.01